Tracking 19827 objects as of 22-Aug-2019
HD Live streaming from Space Station
objects crossing your sky now

STTW-T1

Track STTW-T1 now!
10-day predictions
STTW-T1 is classified as:


NORAD ID: 14670
Int'l Code: 1984-008A
Perigee: 480.4 km
Apogee: 6,323.7 km
Inclination: 36.1 °
Period: 160.3 minutes
Semi major axis: 9773 km
RCS: 3.9341 m2 (large)
Launch date: January 29, 1984
Source: People's Republic of China (PRC)
Launch site: Xichang Space Center, China (XSC)
aabbcc
Your satellite tracking list
Your tracking list is empty




NASA's NSSDC Master Catalog

Two Line Element Set (TLE):
1 14670U 84008A   19232.84973646 -.00000097 +00000-0 -54311-4 0  9998
2 14670 036.1317 060.4431 2989497 313.2010 025.4169 08.98586228159500
Source of the keplerian elements: AFSPC